When you browse on this site, cookies collect data to enhance your experience and personalize the content and advertising you see.
Visit our Privacy Policy to learn more. By continuing to use the site, you agree to this use of cookies and data.
  • In Austria
  • List of Countries
  • For 7 days
  • Water Temperature
  • Weather Map
  • News
  • Weather Widgets
  • user-avatar
    Login

    Hourly Weather Budamsha

    Today, 22 November, Friday

    Time Temperature Precipitation Wind Pressure Humidity
    00:00 -14°C° 0 mm 1 mps 753 mmHg 79%
    01:00 -14°C° 0 mm 1 mps 753 mmHg 77%
    02:00 -14°C° 0 mm 1 mps 753 mmHg 75%
    03:00 -16°C° 0 mm 2 mps 753 mmHg 74%
    04:00 -15°C° 0 mm 2 mps 753 mmHg 73%
    05:00 -15°C° 0 mm 2 mps 752 mmHg 73%
    06:00 -15°C° 0 mm 2 mps 752 mmHg 72%
    07:00 -15°C° 0 mm 2 mps 751 mmHg 71%
    08:00 -15°C° 0 mm 2 mps 752 mmHg 72%
    09:00 -14°C° 0 mm 2 mps 752 mmHg 73%
    10:00 -13°C° 0 mm 2 mps 752 mmHg 73%
    11:00 -10°C° 0 mm 1 mps 752 mmHg 73%
    12:00 -10°C° 0 mm 1 mps 751 mmHg 73%
    13:00 -9°C° 0 mm 1 mps 751 mmHg 73%
    14:00 -10°C° 0 mm 1 mps 751 mmHg 75%
    15:00 -10°C° 0 mm 1 mps 751 mmHg 77%
    16:00 -11°C° 0 mm 1 mps 750 mmHg 79%
    17:00 -11°C° 0 mm 1 mps 750 mmHg 79%
    18:00 -12°C° 0 mm 0 mps 750 mmHg 78%
    19:00 -12°C° 0 mm 0 mps 750 mmHg 78%
    20:00 -12°C° 0 mm 0 mps 750 mmHg 78%
    21:00 -12°C° 0 mm 0 mps 750 mmHg 77%
    22:00 -12°C° 0 mm 0 mps 750 mmHg 77%
    23:00 -12°C° 0 mm 0 mps 750 mmHg 77%

    Tomorrow, 23 November, Saturday

    Time Temperature Precipitation Wind Pressure Humidity
    00:00 -12°C° 0 mm 0 mps 750 mmHg 77%
    01:00 -13°C° 0 mm 0 mps 750 mmHg 78%
    02:00 -13°C° 0 mm 0 mps 750 mmHg 77%
    03:00 -12°C° 0 mm 0 mps 750 mmHg 76%
    04:00 -12°C° 0 mm 0 mps 750 mmHg 76%
    05:00 -12°C° 0 mm 0 mps 749 mmHg 76%
    06:00 -12°C° 0 mm 0 mps 749 mmHg 75%
    07:00 -12°C° 0 mm 0 mps 749 mmHg 75%
    08:00 -12°C° 0 mm 0 mps 749 mmHg 75%
    09:00 -11°C° 0 mm 0 mps 749 mmHg 74%
    10:00 -10°C° 0 mm 0 mps 749 mmHg 74%
    11:00 -9°C° 0 mm 1 mps 749 mmHg 75%
    12:00 -9°C° 0 mm 1 mps 748 mmHg 75%
    13:00 -8°C° 0 mm 1 mps 748 mmHg 76%
    14:00 -10°C° 0 mm 2 mps 747 mmHg 78%
    15:00 -10°C° 0 mm 2 mps 747 mmHg 79%
    16:00 -12°C° 0 mm 2 mps 747 mmHg 81%
    17:00 -12°C° 0 mm 2 mps 746 mmHg 82%
    18:00 -13°C° 0 mm 3 mps 746 mmHg 82%
    19:00 -13°C° 0 mm 3 mps 746 mmHg 83%
    20:00 -13°C° 0 mm 3 mps 746 mmHg 86%
    21:00 -13°C° 0 mm 3 mps 745 mmHg 88%
    22:00 -12°C° 0 mm 3 mps 745 mmHg 90%
    23:00 -12°C° 0 mm 3 mps 745 mmHg 90%

    Day after tomorrow, 24 November, Sunday

    Time Temperature Precipitation Wind Pressure Humidity
    00:00 -13°C° 0 mm 3 mps 745 mmHg 91%
    01:00 -13°C° 0 mm 3 mps 745 mmHg 91%
    02:00 -13°C° 0 mm 3 mps 745 mmHg 90%
    03:00 -13°C° 0 mm 3 mps 744 mmHg 89%
    04:00 -13°C° 0 mm 3 mps 744 mmHg 88%
    05:00 -12°C° 0 mm 2 mps 745 mmHg 88%
    06:00 -13°C° 0 mm 2 mps 745 mmHg 87%
    07:00 -13°C° 0 mm 2 mps 745 mmHg 86%
    08:00 -12°C° 0 mm 2 mps 745 mmHg 86%
    09:00 -10°C° 0 mm 2 mps 745 mmHg 85%
    10:00 -8°C° 0 mm 1 mps 745 mmHg 84%
    11:00 -8°C° 0 mm 1 mps 745 mmHg 84%
    12:00 -7°C° 0 mm 1 mps 745 mmHg 83%
    13:00 -6°C° 0 mm 1 mps 745 mmHg 83%
    14:00 -7°C° 0 mm 1 mps 745 mmHg 84%
    15:00 -7°C° 0 mm 1 mps 745 mmHg 84%
    16:00 -8°C° 0 mm 1 mps 745 mmHg 85%
    17:00 -8°C° 0 mm 1 mps 745 mmHg 84%
    18:00 -10°C° 0 mm 2 mps 745 mmHg 84%
    19:00 -10°C° 0 mm 2 mps 745 mmHg 84%
    20:00 -10°C° 0 mm 2 mps 745 mmHg 85%
    21:00 -10°C° 0 mm 2 mps 745 mmHg 85%
    22:00 -10°C° 0 mm 2 mps 745 mmHg 86%
    23:00 -10°C° 0 mm 2 mps 745 mmHg 86%

    25 November, Monday

    Time Temperature Precipitation Wind Pressure Humidity
    00:00 -10°C° 0 mm 2 mps 745 mmHg 86%
    01:00 -10°C° 0 mm 2 mps 745 mmHg 86%
    02:00 -10°C° 0 mm 2 mps 745 mmHg 87%
    03:00 -12°C° 0 mm 3 mps 745 mmHg 87%
    04:00 -12°C° 0 mm 3 mps 745 mmHg 87%
    05:00 -13°C° 0 mm 3 mps 745 mmHg 88%
    06:00 -13°C° 0 mm 3 mps 745 mmHg 89%
    07:00 -13°C° 0 mm 3 mps 745 mmHg 90%
    08:00 -12°C° 0 mm 3 mps 746 mmHg 90%
    09:00 -12°C° 0 mm 3 mps 746 mmHg 90%
    10:00 -10°C° 0 mm 3 mps 746 mmHg 90%
    11:00 -10°C° 0 mm 3 mps 746 mmHg 89%
    12:00 -10°C° 0 mm 3 mps 746 mmHg 88%
    13:00 -9°C° 0 mm 3 mps 747 mmHg 87%
    14:00 -10°C° 0 mm 3 mps 747 mmHg 89%
    15:00 -12°C° 0 mm 3 mps 747 mmHg 90%
    16:00 -12°C° 0 mm 2 mps 747 mmHg 92%
    17:00 -13°C° 0 mm 2 mps 747 mmHg 92%
    18:00 -13°C° 0 mm 2 mps 747 mmHg 93%
    19:00 -14°C° 0 mm 2 mps 747 mmHg 93%
    20:00 -14°C° 0 mm 2 mps 747 mmHg 93%
    21:00 -12°C° 0 mm 1 mps 747 mmHg 93%
    22:00 -13°C° 0 mm 1 mps 747 mmHg 93%
    23:00 -13°C° 0 mm 1 mps 747 mmHg 93%

    26 November, Tuesday

    Time Temperature Precipitation Wind Pressure Humidity
    00:00 -13°C° 0 mm 1 mps 747 mmHg 93%
    01:00 -13°C° 0 mm 1 mps 747 mmHg 93%
    02:00 -14°C° 0 mm 1 mps 747 mmHg 93%
    03:00 -14°C° 0 mm 0 mps 747 mmHg 93%
    04:00 -14°C° 0 mm 0 mps 747 mmHg 93%
    05:00 -14°C° 0 mm 1 mps 747 mmHg 92%
    06:00 -14°C° 0 mm 1 mps 747 mmHg 92%
    07:00 -13°C° 0 mm 1 mps 747 mmHg 92%
    08:00 -13°C° 0 mm 1 mps 747 mmHg 92%
    09:00 -14°C° 0 mm 2 mps 747 mmHg 91%
    10:00 -13°C° 0 mm 2 mps 747 mmHg 91%
    11:00 -12°C° 0 mm 2 mps 747 mmHg 90%
    12:00 -12°C° 0 mm 3 mps 747 mmHg 89%
    13:00 -10°C° 0 mm 3 mps 747 mmHg 88%
    14:00 -12°C° 0 mm 3 mps 746 mmHg 89%
    15:00 -12°C° 0 mm 3 mps 746 mmHg 90%
    16:00 -13°C° 0 mm 3 mps 746 mmHg 92%
    17:00 -13°C° 0 mm 3 mps 746 mmHg 92%
    18:00 -14°C° 0 mm 3 mps 746 mmHg 92%
    19:00 -14°C° 0 mm 3 mps 746 mmHg 92%
    20:00 -14°C° 0 mm 3 mps 746 mmHg 92%
    21:00 -13°C° 0 mm 3 mps 746 mmHg 93%
    22:00 -13°C° 0 mm 3 mps 746 mmHg 93%
    23:00 -13°C° 0 mm 3 mps 746 mmHg 92%

    27 November, Wednesday

    Time Temperature Precipitation Wind Pressure Humidity
    00:00 -13°C° 0 mm 3 mps 746 mmHg 92%
    01:00 -14°C° 0 mm 4 mps 746 mmHg 92%
    02:00 -14°C° 0 mm 3 mps 746 mmHg 91%
    03:00 -14°C° 0 mm 3 mps 745 mmHg 90%
    04:00 -14°C° 0 mm 3 mps 745 mmHg 89%
    05:00 -14°C° 0 mm 3 mps 745 mmHg 88%
    06:00 -13°C° 0 mm 3 mps 746 mmHg 87%
    07:00 -14°C° 0 mm 4 mps 746 mmHg 85%
    08:00 -12°C° 0 mm 4 mps 746 mmHg 83%
    09:00 -12°C° 0 mm 3 mps 746 mmHg 82%
    10:00 -10°C° 0 mm 3 mps 746 mmHg 80%
    11:00 -11°C° 0 mm 4 mps 746 mmHg 78%
    12:00 -10°C° 0 mm 4 mps 746 mmHg 76%
    13:00 -9°C° 0 mm 4 mps 746 mmHg 75%
    14:00 -10°C° 0 mm 4 mps 746 mmHg 75%
    15:00 -10°C° 0 mm 3 mps 746 mmHg 76%
    16:00 -12°C° 0 mm 3 mps 746 mmHg 77%
    17:00 -12°C° 0 mm 3 mps 747 mmHg 75%
    18:00 -12°C° 0 mm 3 mps 747 mmHg 73%
    19:00 -13°C° 0 mm 3 mps 747 mmHg 72%
    20:00 -13°C° 0 mm 3 mps 747 mmHg 69%
    21:00 -13°C° 0 mm 3 mps 747 mmHg 67%
    22:00 -13°C° 0 mm 3 mps 747 mmHg 65%
    23:00 -12°C° 0 mm 2 mps 748 mmHg 64%
    Show more